• In Hungary
  • List of Countries
  • For 7 days
  • Water Temperature
  • Satellite Maps
  • Weather Map
  • News
  • Weather Widgets
  • user-avatar
    Login

    Hourly Weather Kraczew

    Today, 22 July, Sunday

    Time Temperature Precipitation Wind Pressure Humidity
    00:00 +19°C° 0 mm 1 mps 738 mmHg 83%
    01:00 +19°C° 0 mm 1 mps 738 mmHg 84%
    02:00 +17°C° 0 mm 0 mps 738 mmHg 85%
    03:00 +17°C° 0 mm 0 mps 738 mmHg 86%
    04:00 +16°C° 0 mm 0 mps 738 mmHg 86%
    05:00 +16°C° 0 mm 0 mps 738 mmHg 87%
    06:00 +18°C° 0 mm 0 mps 738 mmHg 82%
    07:00 +20°C° 0 mm 0 mps 738 mmHg 78%
    08:00 +21°C° 0 mm 0 mps 738 mmHg 74%
    09:00 +25°C° 0.2 mm 1 mps 738 mmHg 69%
    10:00 +26°C° 0.2 mm 1 mps 738 mmHg 63%
    11:00 +27°C° 0.2 mm 2 mps 738 mmHg 58%
    12:00 +28°C° 0.1 mm 2 mps 737 mmHg 56%
    13:00 +28°C° 0.1 mm 2 mps 737 mmHg 54%
    14:00 +29°C° 0.1 mm 2 mps 737 mmHg 53%
    15:00 +28°C° 0.1 mm 2 mps 737 mmHg 55%
    16:00 +28°C° 0.1 mm 2 mps 737 mmHg 56%
    17:00 +28°C° 0.1 mm 2 mps 737 mmHg 58%
    18:00 +26°C° 0.1 mm 2 mps 737 mmHg 66%
    19:00 +25°C° 0.1 mm 2 mps 737 mmHg 73%
    20:00 +23°C° 0.1 mm 2 mps 737 mmHg 80%
    21:00 +21°C° 0 mm 2 mps 737 mmHg 83%
    22:00 +20°C° 0 mm 2 mps 737 mmHg 86%
    23:00 +19°C° 0 mm 2 mps 737 mmHg 90%

    Tomorrow, 23 July, Monday

    Time Temperature Precipitation Wind Pressure Humidity
    00:00 +19°C° 0 mm 2 mps 737 mmHg 90%
    01:00 +18°C° 0 mm 2 mps 737 mmHg 91%
    02:00 +19°C° 0 mm 1 mps 737 mmHg 92%
    03:00 +18°C° 0.1 mm 2 mps 737 mmHg 92%
    04:00 +18°C° 0.1 mm 2 mps 737 mmHg 93%
    05:00 +18°C° 0.1 mm 2 mps 737 mmHg 93%
    06:00 +19°C° 0.3 mm 3 mps 737 mmHg 90%
    07:00 +20°C° 0.3 mm 3 mps 737 mmHg 88%
    08:00 +21°C° 0.3 mm 4 mps 737 mmHg 85%
    09:00 +22°C° 0.3 mm 4 mps 737 mmHg 82%
    10:00 +23°C° 0.3 mm 5 mps 737 mmHg 79%
    11:00 +23°C° 0.3 mm 5 mps 737 mmHg 76%
    12:00 +23°C° 0.4 mm 5 mps 737 mmHg 77%
    13:00 +23°C° 0.4 mm 5 mps 737 mmHg 78%
    14:00 +23°C° 0.4 mm 4 mps 736 mmHg 79%
    15:00 +23°C° 0.4 mm 4 mps 736 mmHg 79%
    16:00 +23°C° 0.4 mm 4 mps 736 mmHg 79%
    17:00 +25°C° 0.4 mm 4 mps 736 mmHg 79%
    18:00 +23°C° 0.5 mm 4 mps 736 mmHg 82%
    19:00 +22°C° 0.5 mm 4 mps 736 mmHg 84%
    20:00 +22°C° 0.5 mm 4 mps 736 mmHg 87%
    21:00 +21°C° 0.6 mm 4 mps 737 mmHg 89%
    22:00 +20°C° 0.6 mm 4 mps 737 mmHg 90%
    23:00 +20°C° 0.6 mm 4 mps 737 mmHg 91%

    Day after tomorrow, 24 July, Tuesday

    Time Temperature Precipitation Wind Pressure Humidity
    00:00 +20°C° 0.2 mm 4 mps 737 mmHg 93%
    01:00 +19°C° 0.2 mm 4 mps 737 mmHg 94%
    02:00 +19°C° 0.2 mm 4 mps 737 mmHg 95%
    03:00 +19°C° 0.2 mm 3 mps 737 mmHg 95%
    04:00 +18°C° 0.2 mm 3 mps 737 mmHg 96%
    05:00 +18°C° 0.2 mm 3 mps 737 mmHg 97%
    06:00 +19°C° 0.3 mm 3 mps 738 mmHg 95%
    07:00 +19°C° 0.3 mm 4 mps 738 mmHg 93%
    08:00 +20°C° 0.3 mm 4 mps 738 mmHg 91%
    09:00 +21°C° 0.2 mm 4 mps 738 mmHg 88%
    10:00 +22°C° 0.2 mm 4 mps 738 mmHg 86%
    11:00 +22°C° 0.2 mm 4 mps 738 mmHg 83%
    12:00 +23°C° 1.1 mm 4 mps 738 mmHg 80%
    13:00 +25°C° 1.1 mm 4 mps 737 mmHg 77%
    14:00 +26°C° 1.1 mm 4 mps 737 mmHg 74%
    15:00 +26°C° 1.4 mm 4 mps 737 mmHg 75%
    16:00 +26°C° 1.4 mm 4 mps 737 mmHg 76%
    17:00 +26°C° 1.4 mm 5 mps 737 mmHg 76%
    18:00 +25°C° 0.6 mm 4 mps 737 mmHg 80%
    19:00 +24°C° 0.6 mm 3 mps 737 mmHg 83%
    20:00 +22°C° 0.6 mm 3 mps 737 mmHg 86%
    21:00 +21°C° 0.4 mm 3 mps 737 mmHg 88%
    22:00 +20°C° 0.4 mm 3 mps 737 mmHg 90%
    23:00 +20°C° 0.4 mm 3 mps 737 mmHg 92%

    25 July, Wednesday

    Time Temperature Precipitation Wind Pressure Humidity
    00:00 +19°C° 0 mm 3 mps 737 mmHg 93%
    01:00 +19°C° 0 mm 2 mps 737 mmHg 95%
    02:00 +19°C° 0 mm 2 mps 737 mmHg 96%
    03:00 +18°C° 0.2 mm 2 mps 737 mmHg 97%
    04:00 +18°C° 0.2 mm 2 mps 737 mmHg 97%
    05:00 +18°C° 0.2 mm 2 mps 737 mmHg 98%
    06:00 +19°C° 0.3 mm 2 mps 737 mmHg 96%
    07:00 +20°C° 0.3 mm 2 mps 738 mmHg 94%
    08:00 +21°C° 0.3 mm 2 mps 738 mmHg 92%
    09:00 +22°C° 0.2 mm 3 mps 738 mmHg 88%
    10:00 +24°C° 0.2 mm 3 mps 738 mmHg 83%
    11:00 +25°C° 0.2 mm 3 mps 738 mmHg 78%
    12:00 +26°C° 0.4 mm 3 mps 738 mmHg 75%
    13:00 +27°C° 0.4 mm 3 mps 737 mmHg 72%
    14:00 +27°C° 0.4 mm 3 mps 737 mmHg 68%
    15:00 +27°C° 0.6 mm 3 mps 737 mmHg 69%
    16:00 +27°C° 0.6 mm 3 mps 737 mmHg 71%
    17:00 +27°C° 0.6 mm 3 mps 737 mmHg 72%
    18:00 +26°C° 0.4 mm 2 mps 737 mmHg 76%
    19:00 +25°C° 0.4 mm 2 mps 737 mmHg 81%
    20:00 +23°C° 0.4 mm 1 mps 737 mmHg 85%
    21:00 +23°C° 0 mm 1 mps 737 mmHg 87%
    22:00 +22°C° 0 mm 1 mps 737 mmHg 89%
    23:00 +21°C° 0 mm 1 mps 737 mmHg 91%

    26 July, Thursday

    Time Temperature Precipitation Wind Pressure Humidity
    00:00 +21°C° 0 mm 1 mps 737 mmHg 92%
    01:00 +21°C° 0 mm 1 mps 737 mmHg 93%
    02:00 +20°C° 0 mm 1 mps 737 mmHg 93%
    03:00 +20°C° 0 mm 1 mps 737 mmHg 94%
    04:00 +20°C° 0 mm 1 mps 738 mmHg 94%
    05:00 +20°C° 0 mm 1 mps 738 mmHg 95%
    06:00 +21°C° 0 mm 1 mps 738 mmHg 91%
    07:00 +23°C° 0 mm 1 mps 738 mmHg 88%
    08:00 +24°C° 0 mm 1 mps 738 mmHg 84%
    09:00 +25°C° 0.2 mm 1 mps 738 mmHg 79%
    10:00 +27°C° 0.2 mm 1 mps 739 mmHg 74%
    11:00 +28°C° 0.2 mm 1 mps 739 mmHg 68%
    12:00 +28°C° 0.2 mm 1 mps 739 mmHg 65%
    13:00 +29°C° 0.2 mm 1 mps 738 mmHg 63%
    14:00 +30°C° 0.2 mm 1 mps 738 mmHg 60%
    15:00 +29°C° 0.3 mm 1 mps 738 mmHg 61%
    16:00 +29°C° 0.3 mm 1 mps 738 mmHg 62%
    17:00 +29°C° 0.3 mm 1 mps 738 mmHg 64%
    18:00 +28°C° 0.3 mm 1 mps 738 mmHg 69%
    19:00 +26°C° 0.3 mm 1 mps 738 mmHg 75%
    20:00 +25°C° 0.3 mm 1 mps 739 mmHg 80%
    21:00 +24°C° 0.6 mm 1 mps 739 mmHg 83%
    22:00 +24°C° 0.6 mm 1 mps 739 mmHg 85%
    23:00 +23°C° 0.6 mm 1 mps 739 mmHg 87%

    27 July, Friday

    Time Temperature Precipitation Wind Pressure Humidity
    00:00 +23°C° 0.1 mm 1 mps 739 mmHg 88%
    01:00 +22°C° 0.1 mm 1 mps 739 mmHg 89%
    02:00 +22°C° 0.1 mm 1 mps 739 mmHg 89%
    03:00 +22°C° 0 mm 1 mps 739 mmHg 90%
    04:00 +21°C° 0 mm 1 mps 739 mmHg 92%
    05:00 +21°C° 0 mm 1 mps 739 mmHg 93%
    06:00 +22°C° 0.1 mm 1 mps 739 mmHg 90%
    07:00 +24°C° 0.1 mm 1 mps 739 mmHg 86%
    08:00 +25°C° 0.1 mm 2 mps 740 mmHg 83%
    09:00 +26°C° 0.7 mm 2 mps 740 mmHg 79%
    10:00 +27°C° 0.7 mm 2 mps 739 mmHg 75%
    11:00 +28°C° 0.7 mm 2 mps 739 mmHg 72%
    12:00 +29°C° 1.1 mm 3 mps 739 mmHg 71%
    13:00 +29°C° 1.1 mm 3 mps 739 mmHg 70%
    14:00 +29°C° 1.1 mm 3 mps 739 mmHg 69%
    15:00 +29°C° 1.1 mm 2 mps 739 mmHg 72%
    16:00 +29°C° 1.1 mm 2 mps 739 mmHg 74%
    17:00 +28°C° 1.1 mm 1 mps 739 mmHg 76%
    18:00 +27°C° 1.1 mm 1 mps 739 mmHg 79%
    19:00 +26°C° 1.1 mm 1 mps 739 mmHg 82%
    20:00 +25°C° 1.1 mm 1 mps 739 mmHg 85%
    21:00 +24°C° 0.3 mm 1 mps 739 mmHg 86%
    22:00 +24°C° 0.3 mm 1 mps 739 mmHg 87%
    23:00 +24°C° 0.3 mm 1 mps 739 mmHg 88%
    Show more